This is the latest recevied weather packets stored in our database for station/object KD5UMO-1. If no packets are shown the sender has not sent any weather packets the latest 10 day(s).
| Time | Temp. | Humidity | Pressure | Rain* | Wind** | Luminosity | Snow |
|---|---|---|---|---|---|---|---|
| 1777946943 | 23.89° C | 67% | 1006.1 hPa | 0 mm | - | 0 W/m² | - |
| 1777946639 | 24.44° C | 67% | 1006.1 hPa | 0 mm | - | 0 W/m² | - |
| 1777946336 | 24.44° C | 67% | 1006.2 hPa | 0 mm | - | 0 W/m² | - |
| 1777946033 | 24.44° C | 67% | 1006.1 hPa | 0 mm | - | 0 W/m² | - |
| 1777945731 | 24.44° C | 67% | 1006.3 hPa | 0 mm | - | 0 W/m² | - |
| 1777945427 | 24.44° C | 66% | 1006.3 hPa | 0 mm | - | 0 W/m² | - |
| 1777945124 | 24.44° C | 66% | 1006.3 hPa | 0 mm | - | 0 W/m² | - |
| 1777944821 | 24.44° C | 66% | 1006.1 hPa | 0 mm | - | 0 W/m² | - |
| 1777944520 | 25° C | 65% | 1006.2 hPa | 0 mm | - | 0 W/m² | - |
| 1777944217 | 25° C | 65% | 1006.2 hPa | 0 mm | - | 0 W/m² | - |
| 1777943913 | 25° C | 65% | 1006 hPa | 0 mm | - | 1 W/m² | - |
| 1777943610 | 25° C | 65% | 1006.2 hPa | 0 mm | - | 2 W/m² | - |
| 1777943306 | 25° C | 65% | 1006.1 hPa | 0 mm | - | 3 W/m² | - |
| 1777943002 | 25° C | 64% | 1005.9 hPa | 0 mm | - | 5 W/m² | - |
| 1777942698 | 25° C | 64% | 1006.1 hPa | 0 mm | - | 8 W/m² | - |
| 1777942395 | 25° C | 64% | 1006 hPa | 0 mm | - | 12 W/m² | - |
| 1777942093 | 25° C | 63% | 1006.2 hPa | 0 mm | - | 17 W/m² | - |
| 1777941789 | 25° C | 63% | 1006 hPa | 0 mm | - | 23 W/m² | - |
| 1777941487 | 25.56° C | 62% | 1006.2 hPa | 0 mm | - | 31 W/m² | - |
| 1777941184 | 25.56° C | 62% | 1006.3 hPa | 0 mm | - | 36 W/m² | - |
| 1777940880 | 25.56° C | 62% | 1006.1 hPa | 0 mm | - | 44 W/m² | - |
| 1777940577 | 25.56° C | 61% | 1006.1 hPa | 0 mm | - | 48 W/m² | - |
| 1777940275 | 25.56° C | 61% | 1006.3 hPa | 0 mm | - | 54 W/m² | - |
| 1777939972 | 25.56° C | 60% | 1006.4 hPa | 0 mm | - | 65 W/m² | - |
| 1777939669 | 26.11° C | 60% | 1006.3 hPa | 0 mm | - | 78 W/m² | - |
* Rain latest hour (hover to see other rain measurements)
** Current wind speed in m/s (hover to see current wind gust speed)